GW1917 Weather Reports


Display with metric or nautical units.
time (UTC)temp
F
wind
direction
speed
MPH
gust
MPH
rain 1hr
in
rain 24hr
in
rain mn
in
humidity
%
barometer
mb
20260507050456 44 222 3.0 3.0 0.00 0.00 0.00 82 1011.6
20260507045953 43 153 2.0 3.0 0.00 0.00 0.00 86 1011.5
20260507045450 43 198 1.0 1.0 0.00 0.00 0.00 91 1011.5
20260507044948 43 148 2.0 2.0 0.00 0.00 0.00 92 1011.4
20260507044444 43 148 0.0 0.0 0.00 0.00 0.00 92 1011.5
20260507043940 43 200 1.0 1.0 0.00 0.00 0.00 91 1011.5
20260507043436 43 175 3.0 5.0 0.00 0.00 0.00 90 1011.5
20260507042932 43 109 0.0 1.0 0.00 0.00 0.00 92 1011.6
20260507042429 43 154 1.0 2.0 0.00 0.00 0.00 93 1011.4
20260507041925 43 148 0.0 1.0 0.00 0.00 0.00 93 1011.5
20260507041422 43 257 5.0 8.0 0.00 0.00 0.00 94 1011.3
20260507040920 43 157 2.0 2.0 0.00 0.00 0.00 95 1011.2
20260507040415 43 165 3.0 6.0 0.00 0.00 0.00 97 1011.1
20260507035911 43 161 1.0 2.0 0.00 0.45 0.45 97 1011.1
20260507035408 43 165 1.0 1.0 0.00 0.45 0.45 96 1011.2
20260507034905 43 205 2.0 2.0 0.00 0.45 0.45 96 1011.3
20260507034401 43 139 1.0 2.0 0.00 0.45 0.45 97 1011.1
20260507033859 44 160 2.0 3.0 0.00 0.45 0.45 96 1011.2
20260507033358 44 157 1.0 1.0 0.00 0.45 0.45 96 1011.2
20260507032854 44 151 1.0 1.0 0.00 0.45 0.45 96 1011.4
20260507032351 44 217 2.0 2.0 0.00 0.45 0.45 95 1011.4
20260507031847 44 137 1.0 1.0 0.00 0.45 0.45 95 1011.2
20260507031344 44 159 1.0 1.0 0.00 0.45 0.45 95 1011.1
20260507030840 44 161 1.0 1.0 0.00 0.45 0.45 94 1011.2
20260507030338 44 168 1.0 1.0 0.00 0.45 0.45 95 1011.2
20260507025834 44 161 1.0 1.0 0.00 0.45 0.45 94 1011.1
20260507025332 44 172 1.0 1.0 0.00 0.45 0.45 94 1011.2
20260507024830 44 156 0.0 1.0 0.00 0.45 0.45 94 1011.1
20260507024327 44 150 0.0 0.0 0.00 0.45 0.45 94 1011.1
20260507023822 44 172 1.0 1.0 0.00 0.45 0.45 94 1011.0
20260507023319 44 155 1.0 2.0 0.00 0.45 0.45 94 1011.2
20260507022817 44 125 0.0 0.0 0.00 0.45 0.45 93 1011.2
20260507022313 44 207 1.0 2.0 0.00 0.45 0.45 92 1011.3
20260507021809 44 183 1.0 1.0 0.00 0.45 0.45 92 1011.4
20260507021305 44 109 0.0 1.0 0.00 0.45 0.45 92 1011.4
20260507020803 44 234 4.0 5.0 0.00 0.45 0.45 91 1011.4
20260507020259 44 202 2.0 2.0 0.00 0.45 0.45 91 1011.5
20260507015757 44 207 3.0 5.0 0.00 0.45 0.45 91 1011.6
20260507015254 44 153 0.0 1.0 0.00 0.45 0.45 92 1011.5
20260507014751 44 244 4.0 5.0 0.00 0.45 0.45 92 1011.6
20260507014247 44 204 4.0 5.0 0.00 0.45 0.45 91 1011.7
20260507013743 44 202 0.0 1.0 0.00 0.45 0.45 92 1011.4
20260507013241 44 299 4.0 5.0 0.00 0.45 0.45 93 1011.4
20260507012738 44 199 2.0 2.0 0.00 0.45 0.45 93 1011.5
20260507012234 44 148 0.0 0.0 0.00 0.45 0.45 94 1011.3
20260507011732 44 156 0.0 0.0 0.00 0.45 0.45 94 1011.4
20260507011228 44 204 2.0 2.0 0.00 0.45 0.45 94 1011.4
20260507010727 44 248 3.0 3.0 0.00 0.45 0.45 94 1011.4
20260507010223 44 217 2.0 2.0 0.00 0.45 0.45 93 1011.3
20260507005721 44 157 0.0 0.0 0.00 0.45 0.45 94 1011.2
20260507005217 44 150 1.0 2.0 0.00 0.45 0.45 93 1011.1
20260507004714 44 197 4.0 7.0 0.00 0.45 0.45 93 1011.2
20260507004212 44 157 1.0 2.0 0.00 0.45 0.45 93 1011.3
20260507003708 44 185 3.0 3.0 0.00 0.45 0.45 93 1011.1
20260507003203 44 210 3.0 3.0 0.00 0.45 0.45 94 1011.2
20260507002659 44 192 3.0 3.0 0.00 0.45 0.45 94 1011.0
20260507002155 44 165 2.0 3.0 0.00 0.45 0.45 94 1011.0
20260507001652 45 162 1.0 1.0 0.00 0.45 0.45 93 1010.8
20260507001150 45 144 0.0 1.0 0.00 0.45 0.45 91 1010.8
20260507000646 45 148 0.0 1.0 0.00 0.45 0.45 91 1010.6
20260507000141 45 136 0.0 0.0 0.00 0.45 0.45 91 1010.5
20260506235639 45 150 0.0 0.0 0.00 0.45 0.45 90 1010.5
20260506235139 45 156 0.0 1.0 0.00 0.45 0.45 90 1010.6
20260506234637 45 161 0.0 1.0 0.00 0.45 0.45 90 1010.3
20260506234134 45 157 0.0 1.0 0.00 0.45 0.45 90 1010.3
20260506233631 45 162 0.0 0.0 0.00 0.45 0.45 90 1010.2
20260506233128 46 181 1.0 1.0 0.00 0.45 0.45 90 1010.2
20260506232624 45 153 0.0 0.0 0.00 0.45 0.45 90 1009.9
20260506232119 45 169 1.0 1.0 0.00 0.45 0.45 89 1010.2
20260506231617 46 148 0.0 0.0 0.00 0.45 0.45 90 1010.2
20260506231115 46 169 0.0 1.0 0.00 0.45 0.45 90 1010.4
20260506230612 46 224 2.0 2.0 0.00 0.45 0.45 90 1010.3
20260506230109 46 163 1.0 1.0 0.00 0.45 0.45 90 1010.2
20260506225605 46 130 0.0 0.0 0.00 0.45 0.45 90 1010.1
20260506225101 46 154 0.0 0.0 0.00 0.45 0.45 90 1010.4
20260506224558 46 158 0.0 0.0 0.00 0.45 0.45 90 1010.2
20260506224055 46 167 1.0 1.0 0.00 0.45 0.45 89 1010.3
20260506223551 46 154 0.0 0.0 0.00 0.45 0.45 89 1010.2
20260506223047 46 169 0.0 1.0 0.00 0.45 0.45 89 1010.3
20260506222544 47 213 2.0 2.0 0.00 0.45 0.45 89 1010.3
20260506222041 47 196 2.0 2.0 0.00 0.45 0.45 88 1010.0
20260506221538 48 275 2.0 2.0 0.00 0.45 0.45 84 1010.1
20260506221036 48 222 1.0 2.0 0.00 0.45 0.45 84 1010.2
20260506220532 48 187 2.0 2.0 0.00 0.45 0.45 84 1010.0
20260506220028 48 218 2.0 2.0 0.00 0.45 0.45 83 1010.1
20260506215525 48 185 1.0 1.0 0.00 0.45 0.45 82 1010.0
20260506215020 48 193 1.0 1.0 0.00 0.45 0.45 82 1009.9
20260506214518 48 151 0.0 0.0 0.00 0.45 0.45 83 1009.8
20260506214015 48 173 1.0 1.0 0.00 0.45 0.45 83 1009.8
20260506213513 48 212 1.0 1.0 0.00 0.45 0.45 83 1009.9
20260506213010 48 329 1.0 2.0 0.00 0.45 0.45 84 1009.7
20260506212506 48 61 1.0 1.0 0.00 0.45 0.45 84 1009.7
20260506212001 48 162 1.0 1.0 0.00 0.45 0.45 84 1010.0
20260506211457 48 348 2.0 2.0 0.00 0.45 0.45 83 1009.8
20260506210955 49 15 4.0 5.0 0.00 0.45 0.45 84 1009.7
20260506210451 49 139 1.0 3.0 0.00 0.45 0.45 85 1009.7
20260506205948 49 136 1.0 1.0 0.00 0.45 0.45 85 1009.6
20260506205444 48 155 0.0 1.0 0.00 0.45 0.45 85 1009.7
20260506204940 49 231 0.0 1.0 0.00 0.45 0.45 86 1009.6
20260506204438 48 120 1.0 1.0 0.00 0.45 0.45 87 1009.5
20260506203935 48 0 2.0 3.0 0.00 0.45 0.45 87 1009.6
20260506203432 48 138 0.0 1.0 0.00 0.45 0.45 87 1009.6
20260506202929 48 323 3.0 3.0 0.00 0.45 0.45 86 1009.5
20260506202426 48 151 0.0 1.0 0.00 0.45 0.45 88 1009.5
20260506201922 48 10 4.0 5.0 0.00 0.45 0.45 88 1009.6
20260506201420 48 46 2.0 2.0 0.00 0.45 0.45 88 1009.5
20260506200917 47 80 0.0 1.0 0.00 0.45 0.45 90 1009.5
20260506200413 47 327 3.0 3.0 0.00 0.45 0.45 89 1009.5
20260506195910 47 100 2.0 2.0 0.00 0.45 0.45 91 1009.6
20260506195407 48 8 2.0 3.0 0.00 0.45 0.45 90 1009.6
20260506194904 48 24 1.0 3.0 0.00 0.45 0.45 88 1009.5
20260506194401 48 125 1.0 2.0 0.00 0.45 0.45 86 1009.3
20260506193858 48 70 1.0 1.0 0.00 0.45 0.45 87 1009.1
20260506193354 49 338 4.0 6.0 0.00 0.45 0.45 86 1009.2
20260506192851 48 28 2.0 2.0 0.00 0.45 0.45 88 1009.2
20260506192348 48 105 3.0 5.0 0.00 0.45 0.45 88 1009.2
20260506191845 47 113 1.0 1.0 0.00 0.45 0.45 90 1009.4
20260506191341 47 44 2.0 5.0 0.00 0.45 0.45 89 1009.5
20260506190838 47 346 3.0 3.0 0.00 0.45 0.45 90 1009.6
20260506190334 46 294 1.0 2.0 0.00 0.45 0.45 90 1009.7
20260506185831 47 25 3.0 5.0 0.00 0.45 0.45 89 1009.7
20260506185328 46 140 3.0 3.0 0.00 0.45 0.45 90 1009.5
20260506184825 47 114 3.0 3.0 0.00 0.45 0.45 91 1009.5
20260506184322 47 107 2.0 2.0 0.00 0.45 0.45 92 1009.6
20260506183820 46 30 4.0 6.0 0.00 0.45 0.45 93 1009.4
20260506183315 46 357 4.0 5.0 0.00 0.45 0.45 92 1009.6
20260506182812 46 68 3.0 5.0 0.00 0.45 0.45 92 1009.3
20260506182309 46 342 4.0 5.0 0.00 0.45 0.45 92 1009.6
20260506181807 46 38 4.0 6.0 0.00 0.45 0.45 93 1009.4
20260506181305 47 31 4.0 5.0 0.00 0.45 0.45 93 1009.2
20260506180802 47 41 4.0 6.0 0.00 0.45 0.45 93 1009.2
20260506180257 46 58 3.0 3.0 0.00 0.45 0.45 92 1009.0
20260506175754 47 120 1.0 2.0 0.00 0.45 0.45 94 1009.1
20260506175251 46 148 2.0 2.0 0.00 0.45 0.45 93 1009.0
20260506174748 46 81 2.0 2.0 0.00 0.45 0.45 95 1009.0
20260506174245 45 87 4.0 6.0 0.00 0.45 0.45 95 1008.7
20260506173743 46 148 2.0 2.0 0.00 0.45 0.45 96 1008.8
20260506173240 46 112 1.0 2.0 0.00 0.45 0.45 96 1008.5
20260506172736 46 72 2.0 2.0 0.00 0.45 0.45 96 1008.9
20260506172233 46 149 0.0 1.0 0.00 0.45 0.45 96 1008.9
20260506171731 46 123 1.0 1.0 0.00 0.45 0.45 96 1008.9
20260506171228 46 50 2.0 2.0 0.00 0.45 0.45 97 1009.0
20260506170725 45 102 2.0 3.0 0.00 0.45 0.45 97 1008.9
20260506170222 46 116 1.0 2.0 0.00 0.45 0.45 98 1008.8
20260506165720 46 103 3.0 5.0 0.00 0.45 0.45 97 1008.7
20260506165217 46 49 0.0 1.0 0.00 0.45 0.45 98 1009.0
20260506164714 45 65 3.0 3.0 0.00 0.45 0.45 98 1008.9
20260506164211 45 68 4.0 5.0 0.00 0.45 0.45 99 1009.2
20260506163708 45 16 4.0 6.0 0.00 0.45 0.45 99 1008.9
20260506163203 45 159 2.0 2.0 0.00 0.45 0.45 99 1008.9
20260506162659 45 103 2.0 3.0 0.00 0.45 0.45 99 1009.0
20260506162157 45 41 7.0 9.0 0.00 0.45 0.45 99 1009.1
20260506161654 45 27 6.0 9.0 0.00 0.45 0.45 99 1009.1
20260506161150 45 30 6.0 9.0 0.07 0.45 0.45 99 1009.2
20260506160648 45 20 3.0 5.0 0.07 0.45 0.45 99 1009.3
20260506160145 44 28 5.0 7.0 0.00 0.44 0.44 99 1009.4
20260506155643 44 34 1.0 2.0 0.00 0.44 0.44 99 1009.6
20260506155140 44 34 4.0 6.0 0.00 0.44 0.44 99 1009.5
20260506153242 44 348 3.0 3.0 0.00 0.44 0.44 99 1009.5
20260506152739 44 21 4.0 5.0 0.00 0.44 0.44 99 1009.5
20260506152236 44 143 0.0 0.0 0.00 0.44 0.44 99 1009.4
20260506151735 44 74 1.0 1.0 0.00 0.44 0.44 99 1009.4
20260506151231 44 52 3.0 3.0 0.00 0.44 0.44 99 1009.2
20260506150728 44 86 0.0 1.0 0.00 0.44 0.44 99 1009.1
20260506150225 44 340 1.0 2.0 0.00 0.44 0.44 99 1009.2
20260506145722 44 53 3.0 5.0 0.00 0.44 0.44 99 1009.0
20260506145219 44 86 3.0 5.0 0.00 0.44 0.44 99 1009.1
20260506144716 43 46 3.0 5.0 0.00 0.44 0.44 99 1009.0
20260506144213 43 20 2.0 3.0 0.00 0.44 0.44 99 1008.9
20260506143710 44 9 7.0 9.0 0.00 0.44 0.44 99 1009.1
20260506143208 43 106 2.0 3.0 0.05 0.44 0.44 99 1009.0
20260506142707 44 132 3.0 3.0 0.05 0.44 0.44 99 1009.0
20260506142204 44 25 3.0 3.0 0.00 0.43 0.43 99 1009.1
20260506141702 43 142 1.0 1.0 0.00 0.43 0.43 99 1009.3
20260506141200 43 29 5.0 7.0 0.00 0.43 0.43 99 1009.4
20260506140657 44 146 1.0 1.0 0.00 0.43 0.43 99 1009.3
20260506140154 43 71 3.0 5.0 0.07 0.43 0.43 99 1009.1
20260506135651 43 106 1.0 2.0 0.07 0.43 0.43 99 1009.2
20260506135147 43 7 2.0 2.0 0.00 0.42 0.42 99 1009.2
20260506134644 43 87 1.0 1.0 0.07 0.42 0.42 99 1009.1
20260506134140 43 69 3.0 3.0 0.07 0.42 0.42 99 1009.3
20260506133637 43 145 5.0 9.0 0.00 0.41 0.41 99 1009.3
20260506133134 43 118 1.0 2.0 0.05 0.41 0.41 99 1009.2
20260506132632 43 53 2.0 2.0 0.05 0.41 0.41 99 1009.1
20260506132128 43 113 1.0 1.0 0.07 0.40 0.40 99 1009.2
20260506131626 43 50 2.0 2.0 0.07 0.40 0.40 99 1009.3
20260506131121 43 24 4.0 5.0 0.00 0.39 0.39 99 1009.2
20260506130619 43 26 2.0 3.0 0.00 0.39 0.39 99 1009.3
20260506130116 43 30 2.0 3.0 0.00 0.39 0.39 99 1009.0
20260506125614 43 113 1.0 2.0 0.05 0.39 0.39 99 1009.2
20260506125112 43 62 1.0 2.0 0.05 0.39 0.39 99 1009.2
20260506124609 43 142 1.0 2.0 0.00 0.38 0.38 99 1009.3
20260506124107 43 52 1.0 2.0 0.00 0.38 0.38 99 1009.3
20260506123604 43 120 2.0 3.0 0.00 0.38 0.38 99 1009.2
20260506123103 42 14 3.0 5.0 0.07 0.38 0.38 99 1009.3
20260506122559 42 88 0.0 1.0 0.07 0.38 0.38 99 1009.3
20260506122057 43 50 2.0 5.0 0.00 0.37 0.37 99 1008.9
20260506121554 42 26 2.0 3.0 0.00 0.37 0.37 99 1009.1
20260506121050 43 133 1.0 1.0 0.05 0.37 0.37 99 1009.0
20260506120549 43 23 1.0 2.0 0.05 0.37 0.37 99 1009.3
20260506120045 43 113 1.0 2.0 0.00 0.36 0.36 99 1009.4
20260506115544 42 29 1.0 2.0 0.07 0.36 0.36 99 1009.3
20260506115042 43 76 0.0 0.0 0.07 0.36 0.36 99 1009.5
20260506114539 43 84 1.0 1.0 0.00 0.35 0.35 99 1009.2
20260506114037 43 131 1.0 1.0 0.05 0.35 0.35 99 1009.4
20260506113535 43 133 0.0 1.0 0.05 0.35 0.35 99 1009.4
20260506113032 43 96 2.0 2.0 0.07 0.34 0.34 99 1009.7
20260506112528 42 88 0.0 1.0 0.07 0.34 0.34 99 1009.7
20260506112026 43 47 2.0 3.0 0.05 0.33 0.33 99 1009.9
20260506111524 43 127 1.0 1.0 0.05 0.33 0.33 99 1010.0
20260506111021 43 137 0.0 0.0 0.05 0.33 0.33 99 1010.2
20260506110518 43 138 0.0 0.0 0.00 0.32 0.32 99 1010.2
20260506110015 42 140 0.0 0.0 0.07 0.32 0.32 99 1009.8
20260506105511 42 119 1.0 2.0 0.07 0.32 0.32 99 1009.8
20260506105009 43 76 1.0 2.0 0.00 0.31 0.31 99 1009.5
20260506104507 43 130 0.0 0.0 0.00 0.31 0.31 99 1009.6
20260506104004 43 94 1.0 1.0 0.00 0.31 0.31 99 1009.5
20260506103501 43 42 2.0 3.0 0.05 0.31 0.31 99 1009.7
20260506102958 43 85 1.0 1.0 0.05 0.31 0.31 99 1009.7
20260506102456 43 142 0.0 0.0 0.07 0.30 0.30 99 1009.8
20260506101953 43 153 0.0 0.0 0.07 0.30 0.30 99 1010.0
20260506101449 43 133 0.0 1.0 0.07 0.29 0.29 99 1009.7
20260506100947 43 120 0.0 0.0 0.12 0.29 0.29 99 1009.8
20260506100445 43 147 0.0 0.0 0.12 0.28 0.28 99 1009.9
20260506095943 43 142 0.0 0.0 0.07 0.27 0.27 99 1009.8
20260506095442 43 146 0.0 0.0 0.05 0.26 0.26 99 1009.7
20260506094937 43 86 1.0 1.0 0.12 0.26 0.26 99 1009.6
20260506094436 43 142 0.0 0.0 0.12 0.25 0.25 99 1009.6
20260506093933 43 150 0.0 0.0 0.12 0.24 0.24 99 1009.5
20260506093431 43 48 1.0 1.0 0.19 0.23 0.23 99 1009.7
20260506092928 44 147 0.0 0.0 0.12 0.21 0.21 99 1009.5
20260506092426 44 147 0.0 0.0 0.12 0.20 0.20 99 1009.3
20260506091922 44 144 0.0 0.0 0.07 0.19 0.19 99 1009.4
20260506091421 44 140 0.0 0.0 0.14 0.19 0.19 99 1009.3
20260506090917 44 142 0.0 0.0 0.12 0.18 0.18 99 1009.5
20260506090415 44 139 0.0 0.0 0.12 0.17 0.17 99 1009.4
20260506085912 44 155 0.0 0.0 0.07 0.16 0.16 99 1009.3
20260506085409 44 137 0.0 1.0 0.05 0.15 0.15 99 1009.5
20260506084905 44 91 1.0 1.0 0.05 0.15 0.15 99 1009.5
20260506084402 44 140 0.0 0.0 0.00 0.14 0.14 99 1009.5
20260506083858 44 142 0.0 0.0 0.00 0.14 0.14 99 1009.8
20260506083355 44 146 0.0 0.0 0.07 0.14 0.14 99 1009.6
20260506082853 44 147 0.0 0.0 0.07 0.14 0.14 99 1009.6
20260506082349 45 143 0.0 0.0 0.00 0.13 0.13 99 1009.6
20260506081845 44 140 0.0 0.0 0.00 0.13 0.13 99 1009.6
20260506081344 44 148 0.0 0.0 0.00 0.13 0.13 99 1009.8
20260506080841 44 152 0.0 0.0 0.00 0.13 0.13 99 1009.9
20260506080337 44 147 0.0 0.0 0.00 0.13 0.13 99 1009.7
20260506073321 44 132 0.0 0.0 0.00 0.13 0.13 99 1009.8
20260506072818 44 162 0.0 0.0 0.05 0.13 0.13 99 1010.3
20260506072316 45 163 0.0 1.0 0.05 0.13 0.13 99 1010.3
20260506071813 45 148 0.0 0.0 0.00 0.12 0.12 99 1009.8
20260506071312 45 121 0.0 0.0 0.00 0.12 0.12 99 1009.6
20260506070808 44 165 0.0 0.0 0.00 0.12 0.12 99 1009.9
20260506070305 44 168 0.0 1.0 0.07 0.12 0.12 99 1010.2
20260506062242 44 167 0.0 0.0 0.05 0.09 0.09 99 1010.4
20260506061738 44 167 0.0 0.0 0.05 0.09 0.09 99 1010.3
20260506061236 45 168 0.0 0.0 0.05 0.09 0.09 99 1010.0
20260506060734 45 155 0.0 0.0 0.07 0.08 0.08 99 1009.9
20260506060231 45 151 0.0 0.0 0.07 0.08 0.08 99 1009.6
20260506051203 44 150 0.0 0.0 0.05 0.04 0.04 99 1010.5